Location: Isle of Man Observatory
(54.1776°N, 4.6264°W)
Time: 15:32:03
(UTC+02:00)

ARIANE 6 FM1 Upper Stage - Pass Details

Date: 25 April 2026
Orbit: 526 x 601 km, 62.0° (Epoch: 19 May)

Event Time Altitude Azimuth Distance (km) Brightness Sun altitude
Rises 23:29:31 0° 305° (NW) 2,689 7.9 -13.7°
Reaches altitude 10° 23:31:47 10° 312° (NW) 1,789 6.7 -13.9°
Maximum altitude 23:35:41 48° 27° (NNE) 702 3.3 -14.3°
Enters shadow 23:38:26 18° 97° (E) 1,359 4.2 -14.5°
